Theta_e
308 308 308 308 307 308 308 307 307 307 307 307 307 307 307 308 307 307 308 307 308 308 309 310 309 310 309 308 307 307 306 304 304 305 309 309 305 305 305 305 309 310 309 310 310 310 307 307 307 307 310 310 309 309 307 309 310 310 317 316 313 315 315 317 319 316 314 313 314 312 313 320 324 325 325 328 330 330 332 331 332 338 339 340 341 342 344 344
308 308 307 308 308 308 308 307 307 307 307 307 307 307 307 307 307 307 308 308 309 309 309 309 309 309 308 308 307 307 307 305 306 310 313 306 306 306 304 306 309 310 310 310 311 310 308 308 306 308 312 311 308 308 307 308 308 314 317 314 317 319 316 317 318 317 315 312 314 313 312 320 323 323 323 330 331 329 335 334 338 345 342 340 341 342 344 343
307 307 307 308 308 307 308 307 307 307 307 307 307 307 307 307 307 308 308 308 309 309 309 309 309 309 308 307 307 308 307 306 313 321 315 307 308 305 304 307 309 310 311 312 311 310 307 307 306 308 312 310 309 308 309 309 309 314 314 312 318 318 316 316 315 314 314 312 313 312 313 321 321 318 323 330 330 331 337 338 344 348 343 344 342 341 343 342
307 308 308 308 308 307 308 307 307 307 307 307 307 307 307 307 308 308 308 309 309 309 309 309 308 307 306 306 307 308 307 311 319 318 312 311 309 304 306 308 308 311 312 312 309 308 307 306 307 310 312 312 311 308 309 312 310 310 310 314 318 314 313 315 314 313 314 312 312 312 314 318 316 318 326 330 331 332 333 333 341 347 342 343 343 341 341 340
307 307 307 307 308 308 308 308 308 308 308 308 307 307 307 307 308 308 309 309 309 309 309 308 307 305 305 304 307 309 309 316 316 312 312 313 307 305 308 307 309 312 313 312 307 307 306 306 309 312 312 313 312 309 310 311 309 310 311 314 316 312 311 312 313 313 313 312 312 313 314 315 317 324 327 329 334 333 329 328 332 341 341 341 342 341 339 339
307 307 307 308 308 308 308 308 308 308 308 308 308 308 308 308 308 308 309 308 309 309 308 307 305 304 303 304 309 310 311 314 312 311 314 313 308 308 309 308 312 312 312 312 307 306 308 308 311 313 311 312 311 310 312 309 307 310 312 313 314 312 311 312 313 313 313 312 313 314 313 315 324 329 325 325 329 325 324 328 332 338 339 339 340 339 339 339
307 307 308 308 308 308 308 309 309 309 308 309 309 308 309 308 308 308 308 308 308 307 306 305 304 303 303 306 311 312 312 315 312 313 316 313 310 309 310 311 313 313 312 310 306 308 311 311 313 313 312 312 311 311 311 309 308 309 311 313 312 310 311 311 312 312 311 311 312 313 311 316 328 328 321 322 321 318 323 330 334 336 337 338 338 338 337 335
307 307 308 308 308 308 309 309 308 308 309 309 309 308 308 309 309 308 307 307 306 306 306 305 303 303 306 309 313 316 317 317 313 314 315 312 312 311 312 313 311 312 312 309 307 308 311 312 312 312 312 312 310 310 310 309 310 310 310 311 311 311 312 311 312 311 310 311 311 313 312 315 323 322 321 322 319 319 325 331 334 336 336 337 336 336 335 334
308 307 307 308 308 308 308 308 308 309 309 309 309 309 308 308 308 308 307 306 305 306 306 305 303 303 309 311 312 317 319 315 311 314 315 311 311 311 311 312 311 312 310 308 306 306 309 312 313 312 311 312 309 310 311 311 313 311 310 311 311 311 312 311 312 311 310 311 311 312 314 315 313 316 319 321 320 321 326 330 333 334 336 336 335 334 334 334
307 307 307 308 308 308 308 308 308 309 309 310 309 309 309 309 308 308 307 306 305 306 305 305 304 303 309 312 312 316 315 311 311 314 313 308 308 310 310 310 311 310 307 306 306 307 310 311 313 312 311 312 310 311 311 309 313 312 311 312 311 311 310 310 311 312 311 311 312 312 315 314 310 314 318 319 321 323 326 329 331 333 334 332 332 332 330 331
307 307 307 307 307 307 307 308 309 310 310 310 310 310 310 310 309 308 307 305 304 304 304 305 304 304 310 312 313 317 315 310 311 312 310 307 307 309 308 308 308 307 306 306 306 307 309 309 310 311 311 312 310 312 311 310 311 311 311 311 312 313 311 310 310 312 312 311 313 314 313 312 311 315 316 318 321 323 324 327 329 331 332 330 330 330 327 327
307 306 307 307 306 307 308 308 309 309 310 311 312 312 311 311 310 309 307 305 304 303 304 305 305 307 310 312 314 315 311 310 312 310 309 306 306 307 307 308 307 306 307 307 307 307 308 308 309 312 312 311 311 312 310 310 310 310 311 310 314 318 314 311 311 311 311 312 313 312 312 315 316 313 313 317 322 323 323 326 327 328 328 328 328 327 324 323
306 306 306 305 306 308 307 307 308 309 309 310 312 312 312 311 310 310 308 305 303 303 305 304 307 309 310 313 314 311 309 311 312 312 311 307 306 307 307 307 307 307 307 308 308 307 308 308 309 311 311 311 312 312 311 311 310 310 311 310 314 318 315 311 312 313 310 312 312 310 315 323 326 316 311 319 325 323 323 323 324 325 325 326 327 325 323 320
304 305 305 305 306 306 306 307 307 308 309 308 309 312 313 312 311 310 308 307 305 304 306 305 308 310 311 314 312 309 311 311 312 314 312 309 307 307 307 308 307 307 308 308 308 309 309 309 308 310 309 310 311 309 312 314 314 312 309 314 315 312 314 315 314 316 311 311 313 309 315 322 325 318 310 317 326 325 325 323 322 323 323 325 326 324 323 320
303 304 304 304 305 305 305 306 306 307 309 308 308 308 311 312 311 310 307 307 305 305 307 307 308 309 313 318 312 310 313 312 314 315 314 313 308 308 309 309 309 309 309 308 309 310 310 309 308 310 310 310 312 312 315 318 319 315 309 317 319 311 314 316 314 316 312 311 314 310 315 319 317 315 311 315 326 326 324 324 323 323 323 325 326 323 323 320
302 302 302 303 303 303 304 305 306 307 307 308 307 307 310 312 311 310 308 306 305 307 309 310 310 308 313 318 313 312 314 314 315 314 315 315 310 310 309 308 309 309 309 309 309 309 309 309 309 310 311 310 314 318 318 320 325 322 315 315 315 311 312 314 312 314 312 311 313 310 315 319 316 315 311 312 323 327 325 325 323 323 323 324 325 323 323 322
301 301 302 302 302 303 304 305 305 306 307 308 307 308 311 313 311 309 308 306 305 306 308 311 310 308 311 313 313 314 314 314 314 313 315 315 313 311 308 308 308 306 309 309 307 309 309 309 310 311 317 320 321 321 316 319 325 326 327 321 315 313 312 315 314 312 312 311 312 312 313 315 317 317 314 310 316 325 326 326 325 323 322 323 324 323 322 322
300 301 301 302 302 303 304 304 305 306 306 307 307 310 313 313 311 309 307 307 307 307 309 310 311 312 313 311 312 313 313 313 314 313 313 315 314 310 308 309 307 308 312 310 308 310 310 313 317 318 326 329 325 321 318 321 319 318 327 324 317 317 314 315 317 315 315 314 313 313 312 315 316 318 318 312 313 322 326 324 322 321 321 323 324 323 322 320
300 301 301 301 302 303 303 304 305 305 306 307 307 311 315 313 311 310 309 308 310 312 314 315 315 315 315 313 311 313 314 313 313 312 312 314 312 310 309 307 309 311 312 313 314 313 313 318 321 318 322 324 321 321 320 322 319 315 324 323 317 319 316 317 319 316 315 313 313 313 314 316 316 318 319 316 316 318 321 320 319 319 320 321 324 323 321 320
301 300 300 301 301 302 303 304 304 305 305 306 307 312 318 318 319 319 315 314 314 313 312 316 317 315 315 315 313 314 315 313 311 311 311 312 310 310 309 306 311 315 314 315 314 314 316 317 318 318 321 323 324 325 321 320 321 320 324 323 317 317 318 319 317 318 316 311 313 316 317 317 315 320 321 320 321 316 315 318 319 321 321 322 324 324 322 320
300 301 301 301 301 302 303 304 304 305 305 306 308 314 320 319 320 320 318 319 316 311 312 315 314 313 314 313 313 314 316 316 314 312 310 310 310 309 309 310 310 314 318 315 314 321 321 316 319 323 324 322 324 327 323 320 321 322 321 319 318 319 319 317 316 322 320 310 314 319 319 318 319 326 328 323 320 315 316 317 318 321 322 321 322 323 322 319
300 301 301 300 301 302 303 304 305 305 306 308 309 312 317 315 314 315 314 318 318 311 313 313 311 313 313 312 314 313 315 319 319 317 311 308 310 309 310 312 311 314 318 314 315 326 323 317 320 322 323 322 324 326 324 323 325 325 321 317 321 322 319 320 321 326 323 313 317 322 319 325 331 332 333 330 325 323 320 317 316 318 320 321 321 322 323 320
301 301 301 301 303 303 304 305 305 306 308 309 309 311 315 314 314 314 312 316 317 314 316 316 315 319 318 315 313 314 318 320 320 319 312 308 310 309 310 312 312 313 313 313 316 317 316 318 322 322 322 321 323 324 321 321 325 327 322 318 322 321 317 322 325 327 324 314 317 322 320 330 339 335 336 332 325 324 321 320 320 316 317 319 319 321 322 321
302 301 301 303 304 305 305 305 306 309 309 309 311 312 314 316 316 315 315 319 319 317 317 316 318 321 321 317 313 317 321 317 318 318 310 309 310 308 310 313 312 310 310 316 320 314 312 317 321 324 325 319 318 322 321 318 322 330 328 319 321 323 318 319 323 328 329 320 320 321 321 336 341 333 335 329 323 325 320 319 321 317 316 316 316 320 321 320
302 302 303 304 304 306 306 306 308 310 310 311 313 313 314 316 316 315 320 324 326 326 319 312 315 319 317 315 314 317 317 314 316 314 308 310 310 308 310 310 310 311 312 314 316 314 312 314 316 319 322 321 318 322 325 323 323 331 334 326 324 327 321 319 324 330 330 325 321 315 318 340 342 331 333 330 326 329 321 319 322 319 318 316 316 319 321 320
303 303 304 304 305 307 307 309 310 311 312 312 313 314 314 316 317 316 323 330 332 329 321 313 314 316 314 313 313 313 315 316 314 310 308 308 309 310 309 309 308 310 314 313 313 314 315 315 317 319 324 325 320 322 327 325 321 323 329 329 327 327 323 321 323 323 324 323 319 316 319 332 336 334 335 328 324 326 322 322 323 317 317 319 316 315 317 320
304 304 304 304 305 307 310 314 312 311 313 313 313 314 314 316 316 316 324 332 328 320 317 314 312 313 312 311 311 313 315 316 312 308 308 308 309 309 310 313 310 308 313 313 313 316 316 317 320 324 330 326 321 325 326 323 322 323 325 327 328 327 324 325 323 321 326 322 320 327 324 319 328 334 329 322 320 323 322 323 324 319 317 318 316 314 314 317
305 304 304 305 305 306 310 313 312 311 313 313 313 314 315 317 317 321 328 327 319 315 314 313 311 310 311 310 310 313 313 313 312 309 308 308 309 309 310 313 312 311 312 309 314 318 314 313 315 322 327 322 325 334 327 320 322 326 325 323 325 325 325 330 327 322 323 318 321 333 322 314 329 334 325 319 317 321 324 323 324 322 315 313 314 315 313 314
305 305 305 305 305 306 309 309 311 312 314 313 313 314 316 317 318 324 327 320 314 314 312 312 312 310 312 311 311 313 311 310 312 310 308 307 308 309 309 311 313 311 309 308 316 318 312 311 315 318 321 323 332 333 324 320 320 321 320 318 319 321 323 328 327 323 321 316 321 332 321 313 327 333 325 318 314 319 325 321 319 317 312 311 310 311 311 311
306 306 305 306 307 308 309 308 310 313 313 313 314 316 317 320 326 327 320 314 313 314 312 310 311 310 310 312 312 312 311 311 313 310 310 309 309 310 306 308 313 313 316 317 316 314 312 313 317 318 319 326 328 320 315 317 315 314 319 320 317 321 324 326 327 324 318 317 323 329 322 313 319 330 327 318 315 317 319 317 316 313 311 311 309 310 310 309
306 306 306 307 309 310 310 308 309 312 313 314 315 316 318 324 332 330 317 311 314 315 311 310 311 311 310 311 312 312 310 312 313 311 311 311 310 311 307 309 315 318 328 329 315 313 312 310 316 319 317 318 317 313 310 312 314 315 322 323 317 319 322 322 325 321 316 321 325 323 319 312 314 324 321 318 317 314 314 314 313 313 311 310 310 311 311 309
307 307 307 309 311 312 311 311 311 313 314 314 315 322 329 326 325 325 319 314 315 316 311 308 309 309 310 312 311 310 309 311 312 311 312 310 310 313 310 313 317 315 323 324 314 316 318 313 313 314 315 314 314 317 311 310 317 318 320 322 317 317 319 320 321 319 319 322 318 315 315 312 317 321 314 315 316 312 312 313 312 313 311 310 310 312 311 309
308 310 311 312 314 314 314 314 313 314 315 316 318 327 334 328 321 322 324 319 313 312 309 307 309 308 309 313 310 309 309 310 310 310 310 309 311 315 314 313 313 311 315 315 312 317 322 321 315 309 312 313 314 319 315 314 316 314 316 320 318 317 318 320 319 315 317 320 315 314 315 315 321 318 312 314 314 313 314 315 314 314 311 309 309 311 312 311
308 313 314 316 318 317 318 317 315 317 316 316 320 322 321 322 321 320 323 320 313 311 309 307 310 309 309 311 309 309 311 310 309 309 311 310 310 316 317 310 307 312 319 315 313 317 317 319 318 312 311 311 312 315 318 322 317 312 315 316 316 322 320 319 319 315 315 318 315 311 313 322 324 313 312 316 314 313 316 315 315 314 310 308 307 309 312 313
307 311 314 317 317 317 319 316 315 318 315 319 330 324 316 321 323 318 318 318 313 310 308 307 310 311 312 313 312 308 309 309 310 312 314 311 311 314 314 310 308 313 318 315 315 315 310 313 319 313 309 308 310 310 312 317 314 309 311 312 313 321 321 317 314 316 317 316 316 314 316 326 322 311 314 319 315 313 314 312 312 311 308 307 308 308 309 310
308 311 314 315 316 317 316 314 317 316 316 327 333 323 321 324 319 315 315 312 309 308 310 312 314 313 312 315 315 311 308 308 310 314 314 310 310 311 310 310 310 310 312 314 317 315 309 316 320 313 309 309 309 309 308 310 314 311 309 312 314 314 321 318 310 312 316 315 317 317 315 319 317 313 316 317 313 311 312 311 310 310 308 307 309 309 309 309
311 312 315 316 317 316 313 315 317 314 321 333 327 319 324 322 313 313 313 309 308 309 312 314 312 310 309 312 317 315 309 309 309 311 313 312 310 310 311 311 309 310 310 309 313 314 311 318 322 313 309 310 308 309 309 308 313 314 312 315 313 310 319 322 315 316 315 315 321 319 314 315 317 317 317 314 311 310 311 310 309 310 309 308 309 308 308 309
314 315 316 313 312 313 312 314 314 318 330 337 328 322 321 316 309 310 309 306 308 311 313 312 309 308 309 309 314 313 309 311 311 309 312 314 310 308 311 310 308 311 311 307 310 312 309 315 323 315 308 311 311 310 313 312 309 312 314 313 312 316 322 319 317 320 315 313 323 321 314 314 319 321 318 312 310 310 310 309 309 310 310 309 309 308 307 308
314 319 320 312 308 311 311 311 315 327 333 329 328 326 318 314 312 309 307 307 309 311 311 311 308 308 310 310 312 312 308 309 310 308 309 311 308 307 308 309 308 310 310 308 310 313 310 312 318 316 309 309 313 312 317 318 311 311 315 313 314 322 323 316 314 318 316 314 321 320 313 315 319 321 316 312 312 311 309 310 310 310 310 310 309 308 308 309
313 322 322 310 307 309 308 311 323 332 324 316 324 326 315 311 312 309 308 307 308 310 310 310 308 308 310 310 309 309 308 309 309 307 309 309 307 306 307 307 307 309 312 314 315 315 312 308 315 324 315 309 314 314 315 319 312 312 316 314 313 313 311 312 311 312 314 317 321 318 315 319 320 316 314 313 316 314 310 310 311 310 310 310 308 308 308 308
312 323 322 310 306 308 309 314 324 327 322 314 318 318 311 309 310 309 309 307 308 308 308 311 312 312 313 311 309 308 308 309 309 307 308 307 305 306 307 306 306 307 312 318 317 315 314 311 317 324 317 314 319 314 310 312 310 313 316 313 314 314 311 312 312 311 312 314 317 316 316 322 319 314 316 317 317 315 310 309 311 310 310 309 308 308 307 308
314 317 315 309 305 307 312 316 316 315 318 314 309 308 309 311 308 307 308 308 308 307 309 311 311 313 314 311 309 309 308 309 308 308 308 306 306 307 306 307 307 308 311 314 312 313 317 317 316 318 316 316 316 308 305 306 308 312 313 311 314 318 318 316 317 319 313 309 312 313 316 324 321 315 318 319 317 313 309 308 310 310 310 309 308 308 307 308
316 313 312 308 306 308 312 315 316 315 317 313 308 306 307 308 307 307 307 308 308 307 310 311 308 309 310 307 307 307 306 308 308 307 308 306 306 308 306 307 309 311 315 315 312 313 316 316 313 316 322 319 313 308 306 307 309 310 308 309 311 315 317 319 321 321 314 312 315 313 314 324 324 318 317 315 312 310 308 308 309 310 310 310 309 309 309 309
315 314 316 309 304 311 314 312 314 317 316 316 314 311 309 307 306 307 307 307 308 307 310 310 307 306 306 305 307 306 305 307 307 305 305 305 306 308 308 308 310 313 316 315 313 311 312 317 316 315 319 317 314 314 313 313 313 310 308 307 308 312 313 314 315 313 310 312 315 314 317 321 320 317 313 309 308 308 308 308 309 309 310 309 310 310 310 310
312 311 316 311 304 310 314 312 314 316 314 314 315 313 311 309 308 308 307 306 307 306 308 308 306 307 308 307 309 310 307 306 305 306 309 310 310 309 309 308 309 313 316 314 313 311 310 316 317 313 314 314 313 315 318 317 313 308 308 306 306 311 311 310 312 311 312 314 312 315 320 317 313 313 312 311 310 309 308 308 309 308 308 308 309 310 310 310
311 310 315 318 311 308 310 309 311 314 312 311 312 310 309 309 310 309 307 305 305 306 307 306 306 309 309 309 312 313 310 307 306 310 314 314 311 309 308 308 309 311 313 311 314 316 311 311 313 314 315 313 311 313 314 313 310 308 308 306 306 311 311 311 312 310 315 316 312 315 316 310 309 311 312 314 314 309 309 310 309 309 308 308 308 309 310 310
311 309 310 313 312 312 314 311 310 311 309 307 309 309 309 311 311 310 307 306 305 306 307 305 305 307 308 309 311 309 309 309 309 311 312 310 310 310 307 307 308 309 309 308 314 318 312 310 312 313 313 312 310 310 308 308 309 309 309 309 309 311 310 310 311 311 313 311 309 316 315 308 311 313 311 314 313 310 310 309 308 309 309 308 308 308 309 310
307 307 305 303 304 309 312 310 309 311 309 308 310 308 307 310 311 309 308 307 307 307 306 305 305 305 305 307 308 308 309 309 308 309 308 305 309 311 308 306 305 305 306 306 311 314 309 309 310 308 310 312 309 308 307 307 308 308 309 311 311 312 310 308 311 314 312 308 309 315 316 312 315 316 313 312 312 312 311 309 308 309 309 309 309 310 310 311
305 308 306 303 303 306 308 307 307 310 310 311 312 308 305 307 308 305 304 306 308 307 305 306 306 304 305 309 312 311 310 308 305 307 307 304 306 308 307 307 305 304 303 303 308 310 308 312 312 307 307 309 308 309 308 307 308 308 308 310 310 310 310 308 312 314 311 309 309 310 312 313 314 315 315 312 311 311 311 310 309 310 310 310 311 312 311 311
304 305 305 306 309 309 309 309 309 312 311 310 310 307 304 304 305 304 303 304 305 306 305 306 306 304 305 311 314 310 310 311 306 304 305 305 306 308 306 305 306 306 304 302 305 306 306 311 312 307 305 306 308 310 309 307 308 307 307 309 307 308 308 306 307 310 308 308 308 306 307 309 309 312 313 311 310 311 311 312 312 309 309 311 312 312 312 311
299 299 300 305 309 308 308 309 308 310 310 308 308 308 305 304 302 302 304 303 302 303 304 304 305 304 305 308 309 306 308 313 310 308 309 307 306 308 307 305 304 304 304 305 304 304 305 308 308 305 305 305 307 309 308 307 307 305 305 307 306 307 310 308 306 308 308 308 307 305 305 307 308 309 310 311 312 312 312 315 315 311 309 311 312 312 311 310
297 299 298 300 304 305 306 307 306 307 307 304 305 306 305 304 302 302 304 303 301 301 301 303 304 304 304 305 305 302 302 306 310 310 309 305 303 305 304 304 302 301 303 305 304 305 306 305 306 306 304 303 305 308 308 307 306 306 307 309 307 307 309 309 307 308 308 307 306 305 306 308 308 308 310 311 311 312 313 315 314 310 309 310 311 310 310 310
Wind_Speed
10 10 10 9 9 9 9 9 9 9 8 8 9 9 9 9 9 9 8 8 8 9 9 10 10 10 11 12 12 14 16 17 16 12 7 12 12 9 7 5 8 9 6 4 2 0 3 4 3 3 3 2 2 1 1 0 1 3 3 3 1 3 3 5 6 5 3 5 7 8 7 2 2 2 1 6 8 7 6 5 3 5 6 7 12 23 26 21
10 10 9 9 9 9 9 9 9 9 9 9 9 9 9 9 8 8 8 8 8 9 9 9 9 10 11 11 12 14 16 17 15 12 11 12 12 10 7 9 10 8 6 3 2 1 4 2 2 4 5 2 2 2 1 0 1 2 3 2 3 5 4 6 5 4 3 4 9 8 6 1 2 0 1 4 5 6 8 4 4 7 8 10 15 23 24 21
10 10 9 9 9 9 9 9 9 9 9 9 9 9 9 9 8 8 8 8 8 9 9 9 10 10 11 11 12 14 14 12 8 7 6 6 7 11 10 12 11 6 5 1 1 1 3 1 1 5 5 2 1 1 1 1 1 2 3 1 5 6 5 5 6 6 5 5 8 9 6 0 3 0 1 5 6 4 6 4 4 6 6 9 11 17 21 21
10 10 10 10 9 9 9 9 9 9 9 9 9 9 9 9 8 8 8 8 8 9 9 9 9 9 10 11 12 12 10 5 2 3 4 6 2 10 14 14 11 6 5 3 4 2 2 3 4 5 4 2 3 2 0 2 2 1 3 4 6 4 3 6 7 7 7 5 6 7 5 1 2 1 3 8 8 1 5 7 7 11 13 12 10 12 17 18
10 10 10 10 9 9 9 9 9 9 9 9 9 9 9 9 8 8 8 8 8 8 9 9 9 9 10 11 11 9 4 3 2 4 6 6 1 13 17 13 10 5 4 5 4 3 2 4 5 5 4 1 2 2 2 3 2 1 3 6 6 3 3 7 5 6 6 3 5 6 3 2 1 2 6 9 9 3 5 6 7 13 17 17 14 13 13 13
10 10 10 10 9 9 9 9 9 9 9 9 9 9 9 9 9 8 8 8 7 7 7 8 8 9 11 10 8 5 2 1 4 5 6 4 5 15 16 12 10 5 5 6 3 2 2 4 5 3 3 1 0 1 4 3 2 2 4 4 6 5 5 6 2 5 3 3 5 4 4 0 5 3 4 5 5 3 4 3 7 10 15 19 17 15 14 13
11 10 10 10 10 9 9 10 10 10 9 9 9 9 9 9 8 8 8 7 6 6 7 7 8 9 11 9 4 2 2 3 5 5 6 2 8 15 15 12 9 5 6 6 3 2 3 5 4 3 3 2 2 3 4 2 1 3 4 5 6 5 7 7 4 5 3 4 8 3 5 2 7 4 3 4 5 5 3 6 9 7 11 15 15 13 13 13
11 11 10 10 10 10 10 10 10 10 10 9 10 9 9 9 8 8 7 6 5 6 6 6 7 8 10 8 2 2 1 4 5 6 4 2 8 15 15 11 8 5 6 6 4 4 3 5 3 3 3 1 3 3 3 1 1 4 5 5 4 4 7 8 7 7 5 6 7 2 6 5 6 4 5 6 6 3 4 10 10 9 9 10 11 12 11 10
11 11 10 10 10 10 10 10 10 10 10 10 10 9 9 9 8 8 7 6 5 5 6 5 5 6 8 5 2 2 1 4 8 6 1 3 6 13 14 10 9 7 7 6 7 6 4 3 4 3 2 2 3 2 3 0 2 5 5 4 5 6 7 7 8 7 4 5 4 3 5 4 2 1 4 4 3 3 8 11 11 12 11 9 9 9 10 10
11 11 10 10 10 10 10 10 10 9 9 9 9 9 9 8 7 7 6 5 5 5 4 4 5 5 5 3 3 3 2 6 10 6 3 4 6 12 12 9 10 9 8 7 9 9 5 5 5 3 3 1 2 3 2 3 3 5 4 5 7 9 8 4 6 5 2 4 5 6 5 2 3 0 3 4 2 7 10 11 10 12 11 10 8 7 7 8
11 11 11 10 10 10 10 10 10 9 9 9 9 8 8 7 6 6 5 4 4 4 3 3 5 5 4 2 4 1 2 7 9 6 3 4 5 10 11 9 11 12 11 8 11 13 7 6 4 3 1 1 2 3 3 4 2 3 2 6 8 7 6 3 5 5 0 2 5 8 3 2 4 1 4 5 4 9 12 12 10 11 10 9 8 7 6 6
12 11 10 10 10 10 10 10 10 9 9 8 9 8 7 6 5 4 4 3 3 3 2 3 4 4 4 2 3 5 3 6 7 5 1 4 4 7 8 8 10 13 13 8 9 15 10 6 4 2 2 1 1 2 2 3 1 2 1 3 9 7 5 4 4 4 0 0 3 6 0 5 3 2 4 3 4 7 11 11 9 10 8 7 8 6 5 6
11 11 10 10 10 10 10 10 10 10 9 9 8 8 8 6 5 4 3 3 2 2 2 2 4 3 3 1 4 3 3 5 7 4 2 5 5 5 6 8 8 10 11 8 5 7 9 9 5 3 3 1 2 3 1 2 2 3 2 1 6 7 6 6 4 3 1 1 2 3 2 5 7 6 6 0 7 9 9 9 8 8 6 7 7 6 6 7
11 10 10 10 10 10 10 11 10 10 10 9 8 7 7 7 5 4 2 2 2 2 2 1 3 3 2 4 4 2 4 5 7 7 5 7 7 5 6 8 9 10 11 12 7 2 5 9 6 1 2 3 3 4 4 6 4 3 2 2 3 2 4 7 4 3 2 1 6 5 2 6 7 8 5 2 7 10 10 8 7 7 6 7 7 7 6 6
11 10 9 10 10 11 11 11 10 9 9 9 8 7 6 6 5 4 2 2 2 1 1 2 3 2 2 5 4 3 6 5 6 9 7 9 8 5 4 7 10 11 12 14 10 4 2 5 4 1 3 2 2 3 4 4 4 3 2 2 4 2 4 8 4 3 1 3 6 7 1 6 6 7 6 4 7 9 10 9 8 8 9 9 7 7 6 5
10 9 9 9 10 11 11 11 10 9 9 9 9 7 6 5 4 3 2 2 1 2 1 2 1 1 1 3 3 4 3 3 6 7 7 10 9 5 2 3 5 7 11 12 10 7 4 4 2 1 1 2 4 4 3 5 4 4 3 0 2 3 3 4 4 5 2 3 4 3 2 5 5 6 5 3 6 8 8 8 9 8 9 9 7 6 6 5
10 9 9 9 10 10 10 11 10 9 9 9 9 7 5 4 2 2 1 1 2 2 2 1 1 1 1 4 4 3 3 4 8 7 7 10 11 9 2 1 0 1 4 6 4 4 3 2 0 1 2 4 3 4 3 3 3 4 3 2 2 1 1 2 3 5 5 1 3 1 2 7 6 6 6 3 3 7 8 8 8 8 7 7 6 6 6 7
9 8 8 8 9 9 10 10 10 10 9 9 9 6 3 1 2 1 1 3 2 1 1 0 1 2 2 3 3 4 8 10 9 6 7 8 10 10 4 1 2 5 5 2 1 1 0 1 2 2 3 4 3 5 2 3 2 2 1 2 1 2 0 3 3 2 6 3 3 2 3 9 8 6 6 5 1 7 8 7 6 6 6 6 6 6 6 7
9 8 8 8 8 9 9 10 10 11 9 9 8 3 2 2 3 2 2 3 2 1 1 2 0 1 2 3 4 8 12 11 6 3 4 6 7 6 2 1 3 5 5 3 3 3 2 2 3 2 3 4 1 4 6 7 6 5 4 4 3 0 2 5 5 4 2 3 1 3 5 7 7 6 5 4 1 5 6 4 5 5 5 5 5 6 6 8
9 8 8 7 7 8 8 9 10 11 10 9 5 1 2 3 3 3 2 1 3 4 4 4 4 2 4 5 5 9 10 5 1 1 3 5 6 5 1 3 4 5 3 0 3 3 4 3 1 3 5 6 6 5 5 4 4 5 5 5 4 2 3 5 4 5 2 2 1 3 4 7 6 6 6 4 3 3 6 4 6 6 5 6 6 7 8 8
8 7 7 7 6 7 8 8 9 10 10 8 3 2 2 1 2 4 4 3 6 8 8 7 5 5 8 7 5 5 4 3 3 2 3 6 6 5 1 3 4 3 2 2 2 3 5 2 4 7 9 7 5 5 4 4 4 4 5 4 1 2 3 5 3 5 4 1 3 1 1 7 7 6 5 2 1 4 8 8 7 7 7 6 7 8 8 6
8 7 6 6 6 6 7 8 8 8 7 6 3 2 2 0 3 4 2 4 7 6 7 6 3 6 9 9 8 1 3 2 6 6 4 6 3 2 1 4 5 2 3 1 2 5 5 2 8 8 6 4 3 5 6 5 5 4 3 3 1 2 3 5 3 5 4 1 4 3 4 6 7 7 6 3 4 5 7 9 9 10 9 8 9 9 8 7
7 6 5 5 5 5 6 7 7 7 6 5 3 2 2 6 8 4 2 2 6 3 3 3 3 5 5 6 7 5 4 2 3 6 6 8 1 2 4 4 4 2 2 2 2 1 2 5 7 3 6 6 3 3 6 4 2 3 3 2 2 3 1 3 4 6 4 1 1 2 3 6 6 6 6 4 3 3 4 7 7 7 10 10 10 9 10 10
7 6 5 5 5 5 6 6 5 6 6 3 3 5 8 12 12 4 1 1 4 4 3 5 4 4 3 2 6 9 3 3 3 4 5 9 3 2 4 3 4 1 2 3 6 4 5 7 5 5 5 5 2 2 5 4 1 2 2 4 2 2 3 4 4 5 4 3 3 4 5 5 5 5 6 5 4 1 0 3 4 5 7 6 5 7 10 12
6 5 4 4 4 5 7 5 4 7 6 1 2 9 12 14 14 5 1 2 2 5 3 3 2 3 3 2 6 7 1 2 5 4 6 9 6 3 1 2 3 1 4 4 6 3 7 5 3 4 2 3 4 2 3 6 2 4 3 6 6 5 4 3 3 5 5 4 4 4 2 5 5 5 6 4 6 5 3 2 3 6 5 4 5 8 9 10
6 5 4 4 4 5 6 3 5 8 4 1 5 12 13 15 13 2 3 4 2 5 3 0 1 1 2 2 4 3 4 2 6 3 5 8 7 4 1 1 2 1 4 4 3 2 4 3 4 4 3 4 3 3 5 6 5 2 4 6 7 6 4 2 1 3 2 3 4 3 3 4 5 5 6 4 6 8 7 6 5 5 5 6 7 8 8 9
6 5 4 4 3 4 3 1 5 6 1 2 9 12 14 16 9 1 3 5 2 3 2 1 1 1 1 2 2 3 2 5 3 1 2 5 3 3 2 2 1 0 3 3 1 2 3 2 5 5 5 5 2 3 5 7 7 3 4 6 8 6 4 4 4 3 2 3 4 4 3 2 4 4 5 5 6 8 8 8 9 5 4 6 7 7 8 11
5 5 4 3 4 4 2 2 5 2 1 6 10 13 16 12 2 3 4 3 2 3 0 2 2 0 2 0 2 3 2 3 2 2 2 3 2 3 2 4 4 3 1 4 3 5 2 2 2 2 5 3 3 4 7 9 5 5 5 7 6 5 5 5 5 3 1 1 3 6 2 1 4 5 5 5 4 7 8 8 9 8 6 4 6 8 9 12
5 5 4 4 4 4 3 5 5 2 3 8 11 15 15 5 2 3 5 2 2 2 1 1 1 2 3 2 1 2 1 1 2 3 3 4 1 3 2 4 6 4 1 4 5 6 3 5 5 4 4 3 6 4 7 9 3 4 6 7 5 6 5 4 5 3 3 2 4 6 1 1 4 6 5 3 2 5 7 7 7 7 8 8 8 9 9 10
5 5 4 4 5 4 5 6 4 2 6 10 13 15 7 2 4 5 2 1 1 2 1 1 1 2 3 3 3 4 1 2 2 2 2 2 3 5 3 2 5 5 1 3 2 6 4 3 2 3 3 5 4 2 3 5 3 3 5 6 6 6 5 4 3 4 4 1 6 7 2 2 2 5 4 2 1 3 5 6 7 7 8 9 9 9 8 9
6 4 4 4 5 5 5 5 3 5 8 11 14 10 2 2 4 5 1 2 1 2 3 2 2 3 4 1 2 4 1 3 4 3 2 1 4 5 2 0 3 4 3 5 3 5 6 3 2 3 3 4 5 4 2 3 4 4 4 5 4 3 4 4 4 3 3 3 6 5 1 4 2 4 3 4 5 5 4 5 7 8 9 9 7 6 7 7
6 4 3 4 5 5 4 4 6 7 9 13 12 5 4 1 1 2 2 3 1 2 2 2 3 4 4 1 2 4 2 3 4 2 1 1 1 1 1 3 2 2 3 2 3 5 5 4 4 5 3 3 5 3 3 5 5 5 4 4 3 2 3 2 3 1 2 5 3 2 1 2 4 5 4 7 7 6 4 5 6 7 8 8 5 5 5 4
5 3 3 4 6 8 6 6 7 7 11 13 7 4 6 3 1 2 2 2 1 2 1 1 2 3 3 4 3 5 2 1 3 2 0 0 1 3 3 1 4 1 1 3 1 4 4 5 5 3 3 1 5 4 1 1 1 4 4 4 3 2 2 1 3 1 2 4 2 2 1 1 3 3 4 6 7 6 4 4 6 6 7 6 5 6 5 4
5 3 4 6 8 8 7 6 7 8 11 9 4 4 3 1 3 2 1 2 2 2 2 1 3 4 5 4 2 4 3 1 3 4 2 2 3 4 4 3 1 3 2 1 1 0 0 5 4 2 2 2 2 5 5 5 3 3 4 5 4 4 4 3 3 2 3 2 2 2 1 2 2 2 5 5 6 6 5 5 5 5 7 3 8 8 7 6
5 4 5 8 7 7 5 5 6 8 7 5 6 4 2 3 3 1 2 3 1 2 3 2 4 4 4 3 4 4 3 1 4 5 3 3 1 2 1 2 2 3 4 1 2 1 2 5 6 4 2 1 1 2 5 6 2 1 3 5 2 4 4 2 3 4 3 1 1 1 2 3 2 3 5 4 5 6 5 4 3 4 6 6 10 9 8 7
4 4 5 7 6 5 4 4 6 6 3 5 6 3 2 4 2 2 2 2 0 0 2 4 4 4 3 4 4 4 2 1 3 4 3 1 1 2 1 2 2 2 5 3 3 1 1 4 6 4 3 1 1 1 3 3 2 1 2 3 4 4 7 4 1 1 3 2 3 1 2 2 1 1 4 4 5 5 5 4 4 5 7 8 9 7 8 8
4 4 2 3 4 3 4 4 5 4 3 6 5 1 3 2 2 3 1 2 0 2 4 2 2 2 1 2 2 4 3 2 3 3 2 2 0 2 3 2 2 1 3 3 3 2 2 4 6 2 1 3 2 2 3 2 4 4 2 5 3 3 5 4 1 2 4 2 4 1 2 2 1 1 3 3 2 2 5 5 5 7 7 8 7 7 7 7
6 2 3 7 6 2 3 3 2 1 4 5 2 2 2 1 1 1 1 2 0 3 5 1 1 1 2 0 3 4 2 2 3 3 2 1 1 2 4 2 2 3 1 2 1 1 2 2 7 2 1 5 5 4 3 5 3 4 4 3 3 2 1 1 2 1 1 2 3 3 2 2 3 4 3 3 3 1 6 5 5 7 7 7 6 6 7 7
6 2 2 8 8 3 2 2 1 4 5 3 0 1 1 1 2 2 1 2 1 3 2 2 1 1 1 2 2 3 2 0 0 2 1 0 1 3 5 2 4 6 4 3 3 1 2 1 5 4 2 4 4 3 1 4 3 2 2 3 2 3 3 2 2 3 3 2 2 3 3 2 5 5 3 5 5 3 4 5 5 6 6 6 5 6 6 6
4 2 1 8 11 3 3 1 1 5 4 1 2 2 1 1 3 4 3 2 1 1 0 2 1 1 1 2 2 1 1 1 2 1 1 1 1 2 4 4 4 7 6 3 3 1 2 2 3 5 4 2 1 1 3 4 1 2 2 2 1 2 2 1 1 2 3 3 3 1 2 4 5 3 3 5 6 5 3 3 5 5 6 6 6 6 6 6
3 3 2 10 15 4 2 3 3 3 2 1 1 2 2 1 1 5 5 3 2 1 1 3 4 2 2 2 1 1 0 1 1 1 1 1 1 1 3 3 3 5 5 5 4 2 1 2 3 3 4 1 4 4 2 4 4 3 2 2 2 3 3 2 1 2 1 3 4 4 2 6 5 3 4 5 5 4 3 3 4 5 5 5 6 6 6 6
4 2 3 14 17 4 4 4 1 2 3 2 0 2 2 2 1 3 4 3 3 1 2 2 3 2 3 2 2 3 2 1 1 1 1 1 3 1 2 4 4 4 1 2 2 1 1 3 1 3 4 4 7 5 1 1 3 4 2 1 3 3 4 4 3 3 0 1 2 4 2 5 5 3 4 4 3 3 4 2 2 4 5 5 6 6 5 5
2 2 4 16 17 3 6 3 2 3 1 2 2 1 1 1 0 2 3 3 2 2 2 1 1 1 1 1 1 3 2 1 2 1 1 2 3 2 4 7 5 1 3 2 2 1 1 2 1 3 4 4 6 4 3 3 4 4 1 1 3 2 3 4 4 3 2 3 2 2 1 5 5 3 2 3 2 1 2 2 3 3 5 5 5 5 5 5
0 4 3 15 16 4 5 0 2 1 3 3 4 3 2 0 1 1 2 2 2 1 1 1 0 0 0 1 2 2 1 1 1 0 1 2 1 3 4 8 6 4 3 1 1 1 1 0 1 2 4 6 6 5 5 5 3 2 1 2 2 3 5 3 1 3 1 3 4 4 4 5 4 3 4 4 2 3 3 2 2 3 4 4 5 5 5 6
2 1 3 10 16 9 4 2 4 3 1 3 3 4 3 2 1 0 1 1 2 1 2 1 1 1 1 3 3 3 2 1 0 1 2 1 2 3 5 8 6 4 2 2 1 1 1 1 2 2 2 3 2 3 3 2 1 0 2 3 0 4 5 2 1 3 1 3 3 4 4 4 4 5 4 4 3 5 5 3 3 3 2 2 3 4 5 5
2 2 3 6 10 8 2 1 4 3 1 2 1 2 2 2 4 2 1 1 2 2 3 1 2 2 3 4 3 3 3 2 1 2 2 2 3 2 4 5 4 4 4 7 6 2 2 0 2 5 5 6 6 6 5 3 1 1 1 3 3 1 3 4 4 3 4 3 2 5 4 1 5 6 5 5 2 2 3 3 3 2 2 3 4 4 5 5
2 1 2 2 4 4 3 3 4 3 0 1 0 2 2 2 4 3 2 1 1 2 3 2 3 2 1 2 3 0 2 3 3 2 1 1 3 3 4 2 3 6 6 7 6 3 4 2 2 4 5 6 6 7 4 1 3 4 4 5 6 3 3 5 4 4 4 4 4 7 5 4 6 7 6 6 5 3 3 1 0 1 1 2 3 4 4 5
3 1 1 1 1 1 2 3 4 3 3 0 1 1 3 3 3 2 3 3 3 3 2 2 5 3 0 2 3 1 1 2 2 0 0 1 2 4 5 2 1 5 5 4 4 3 4 2 3 2 4 6 5 6 4 1 4 4 5 7 8 5 6 7 7 6 6 6 7 6 7 7 7 6 7 7 5 5 5 3 2 2 1 1 2 3 4 5
2 2 2 2 1 1 1 3 2 2 4 3 2 2 3 3 3 2 3 2 4 4 3 2 3 5 3 2 4 2 1 2 1 2 2 0 1 2 3 2 2 4 5 4 3 2 3 2 3 3 3 6 5 6 4 4 4 4 5 7 7 7 8 8 7 6 7 8 8 5 8 9 7 7 8 7 5 5 4 3 2 2 1 1 1 2 4 5
2 1 3 3 3 1 2 3 3 3 3 3 2 2 2 2 3 3 3 1 2 4 3 3 3 4 3 4 4 1 4 6 2 2 4 2 2 1 1 2 3 4 6 3 1 1 1 2 2 2 3 6 5 5 5 5 5 5 7 7 4 5 6 5 4 4 4 6 7 5 6 8 7 6 6 3 0 1 2 3 3 2 2 3 2 1 3 4
3 2 1 2 2 4 3 3 3 3 3 3 2 2 2 2 2 3 3 1 3 2 3 1 2 1 3 4 2 3 5 5 5 5 7 5 2 3 2 2 3 2 4 0 1 1 1 1 1 1 3 5 3 5 7 5 4 7 8 6 5 6 6 5 5 5 6 6 6 4 5 7 6 5 4 2 1 1 4 5 4 3 4 5 4 2 2 4
6 2 2 3 0 3 3 2 3 3 1 2 2 2 2 3 4 2 1 1 5 5 3 1 2 2 2 4 3 5 7 5 6 6 6 5 2 3 3 2 3 2 1 1 1 1 2 2 0 2 2 3 3 6 6 3 5 8 7 8 11 10 8 6 5 5 7 6 5 6 6 6 5 6 6 5 4 4 5 5 3 3 4 5 4 3 3 4
Wind_Direction
336 335 332 331 328 324 319 316 318 318 321 321 322 322 319 321 318 320 320 316 316 312 313 316 318 320 321 323 323 324 324 320 317 315 273 264 276 261 252 231 194 189 203 243 267 349 37 53 52 47 102 93 10 10 17 19 110 69 88 107 204 203 193 198 197 204 210 281 292 322 343 76 54 357 68 64 74 97 83 45 41 27 40 95 116 131 140 147
339 338 334 330 326 323 322 320 320 320 319 318 319 317 316 318 317 320 319 316 316 313 314 315 320 322 320 323 324 325 324 321 315 292 270 275 273 255 228 196 189 187 198 231 265 140 72 27 350 43 63 57 336 356 31 315 130 114 117 131 222 205 214 207 201 232 223 277 297 311 314 193 121 92 10 99 119 111 93 49 44 65 69 94 114 128 137 143
341 340 337 332 328 328 326 324 324 320 318 318 316 316 316 316 317 318 316 313 315 316 316 317 321 320 322 325 323 324 320 322 316 277 290 326 267 234 202 186 187 185 199 186 42 147 106 57 21 67 59 42 341 3 31 356 192 167 130 189 245 215 236 239 220 242 242 277 298 303 304 157 130 47 25 123 125 107 127 141 108 121 132 123 126 132 137 143
342 340 338 337 334 331 328 325 323 320 318 316 314 314 312 312 314 313 312 313 314 317 317 319 320 320 327 327 325 320 318 337 314 276 346 357 281 183 174 184 186 190 209 149 90 107 96 63 60 68 70 37 332 358 315 261 204 165 144 200 238 202 249 255 220 245 260 260 268 294 316 124 137 62 126 136 124 85 213 203 181 161 156 143 142 141 142 147
343 341 341 340 337 332 328 326 322 320 317 314 312 310 310 310 309 310 311 311 313 317 317 320 322 327 330 328 329 317 332 44 274 300 359 4 117 164 167 178 180 176 173 147 120 104 66 52 59 53 59 47 343 20 248 244 140 157 223 211 226 185 249 266 211 229 255 264 282 306 316 171 101 88 153 158 152 193 239 224 197 162 156 154 152 150 149 153
342 340 340 338 336 332 330 329 325 322 317 315 313 310 311 308 307 309 308 308 309 311 316 322 329 336 335 331 329 322 29 27 284 319 352 21 142 163 165 172 169 155 148 147 127 80 66 58 58 61 59 33 224 205 251 268 119 202 271 251 243 211 231 272 200 207 248 338 295 283 289 179 90 122 191 201 193 253 297 163 159 161 158 153 150 153 157 161
339 338 337 335 334 333 333 330 326 322 317 314 311 308 309 305 305 304 303 305 300 307 318 327 342 343 341 339 321 344 57 267 290 341 347 38 157 168 168 171 164 157 158 145 112 87 84 75 76 121 99 14 219 218 249 287 128 187 263 281 264 220 225 260 253 243 252 273 266 276 314 263 142 157 188 233 261 300 331 112 125 144 146 144 148 156 159 163
338 338 336 334 333 332 331 327 326 324 319 314 309 306 303 302 301 302 306 304 297 313 321 331 351 349 348 352 329 357 3 266 316 343 337 82 161 175 173 171 175 189 165 158 165 156 121 104 136 143 94 284 183 212 253 319 347 198 227 268 276 230 236 262 272 267 239 238 258 296 305 252 188 167 162 225 286 338 100 108 116 127 134 146 152 155 157 161
339 336 333 333 331 329 327 327 327 325 321 317 311 306 302 301 300 303 304 300 305 313 319 334 346 354 354 352 47 37 291 299 349 1 48 116 154 174 180 179 185 189 162 182 200 178 172 162 186 182 165 226 179 247 266 161 277 216 210 254 273 269 269 274 274 268 222 225 216 200 278 281 256 174 170 243 291 118 113 110 123 134 144 156 154 158 160 161
334 332 332 331 329 330 330 330 330 327 326 321 317 313 306 304 298 299 300 299 306 301 311 337 340 357 352 344 61 61 303 346 10 31 119 139 145 163 179 189 187 182 169 188 196 181 174 179 191 168 155 203 207 242 207 153 207 203 208 259 261 274 282 264 271 282 193 221 181 181 238 270 326 310 205 272 182 135 113 116 134 142 154 160 156 161 158 161
331 331 330 329 331 334 335 336 337 336 335 330 329 325 314 308 298 297 301 298 297 296 313 334 346 1 356 35 83 163 305 3 18 39 118 160 153 164 173 182 184 183 178 182 200 200 183 168 156 98 129 242 234 253 220 190 219 223 248 294 292 296 289 261 282 295 246 217 166 163 208 316 346 12 227 257 174 139 123 133 145 148 158 156 156 159 155 169
330 329 328 330 333 336 340 343 346 347 346 345 341 337 331 316 302 299 299 298 294 293 309 335 355 4 8 42 179 222 304 347 356 19 127 184 176 178 180 183 187 185 182 181 210 212 200 176 118 86 240 243 313 303 226 215 251 293 43 311 307 345 352 331 320 306 347 136 149 149 73 331 299 239 272 275 145 127 124 138 145 150 156 152 163 163 162 177
330 330 330 333 335 339 346 350 354 356 356 355 349 349 346 330 313 301 290 287 282 288 298 342 353 2 29 324 236 242 304 313 317 325 220 215 210 197 205 208 208 206 206 213 227 218 213 206 171 187 220 152 271 275 81 18 349 311 29 61 316 0 4 338 344 341 20 120 42 133 241 291 267 263 283 247 127 120 120 139 146 149 155 160 174 172 171 182
335 333 331 332 335 340 349 355 1 4 1 354 349 349 343 334 317 290 276 267 240 263 283 13 2 16 62 264 264 331 301 290 290 279 245 221 216 221 234 224 223 226 229 241 252 270 226 209 184 193 227 174 243 288 351 6 12 324 343 50 3 28 306 313 322 346 345 344 43 78 215 266 270 277 269 170 137 139 138 151 151 150 165 173 183 178 179 191
339 335 332 332 334 339 348 355 3 5 357 350 348 343 329 328 313 278 258 246 216 230 295 31 3 8 11 288 279 313 299 292 284 276 258 230 216 223 237 221 229 231 235 247 246 231 178 172 154 120 249 236 38 5 342 349 7 15 19 319 353 49 296 311 332 13 345 306 31 79 223 274 273 271 245 176 147 149 148 158 160 163 176 180 188 182 180 191
337 335 333 333 335 339 343 350 360 359 350 347 348 339 321 318 309 271 241 228 155 122 82 48 6 90 74 303 323 342 313 292 305 295 252 234 225 207 185 202 230 234 237 251 249 233 209 148 126 110 228 8 57 72 29 12 353 355 55 283 321 25 343 326 352 2 357 291 353 78 208 274 297 295 268 190 153 153 152 166 171 171 181 184 188 184 177 179
336 334 332 333 334 336 338 344 352 351 345 345 349 344 328 322 309 270 225 159 132 147 127 109 350 34 270 283 318 338 322 309 314 297 236 232 231 213 181 101 121 294 249 256 250 220 207 159 60 350 45 39 69 85 42 2 335 324 23 64 282 305 25 335 329 344 15 352 293 10 217 256 287 323 318 304 151 152 164 181 180 174 184 189 183 184 182 183
334 332 331 331 331 331 336 340 342 344 345 345 352 357 357 45 92 65 100 118 114 139 125 224 351 32 278 291 314 300 307 309 311 289 227 225 228 221 221 57 22 3 7 9 31 85 65 351 47 35 13 8 33 78 108 226 186 216 249 88 335 312 238 295 279 310 22 22 262 303 270 262 287 326 326 322 122 172 192 183 171 171 179 189 190 193 190 193
332 330 330 329 330 329 332 334 333 337 344 348 352 14 88 85 87 66 72 99 88 311 278 245 201 66 247 265 288 304 311 309 303 269 215 207 210 209 209 52 31 20 32 25 345 11 41 24 36 40 330 308 258 136 175 208 170 165 180 139 137 60 268 264 257 268 355 56 267 254 254 271 297 305 292 316 14 198 212 155 145 169 175 190 198 201 202 206
331 330 329 328 329 327 326 327 327 334 345 347 347 61 87 32 29 356 329 168 206 226 248 225 193 256 278 268 298 323 322 316 308 208 199 191 168 142 74 16 36 36 44 268 295 352 66 62 330 215 229 242 230 197 183 185 140 127 119 122 157 172 280 278 267 289 310 102 262 222 239 273 276 261 250 281 336 233 227 199 179 184 183 194 199 204 210 214
334 331 329 331 326 322 322 321 328 337 343 345 358 87 106 76 31 324 303 282 239 219 233 234 201 242 268 268 294 346 355 342 339 321 181 174 146 125 350 13 61 17 320 223 257 355 52 57 248 224 221 226 211 183 149 119 94 98 129 129 163 197 246 268 252 305 337 113 265 290 324 281 268 264 250 193 144 224 224 211 203 199 192 196 202 208 209 209
337 333 335 335 324 321 322 324 333 339 345 357 25 99 164 219 314 285 272 311 282 223 218 243 244 263 268 269 265 255 72 2 321 313 163 143 113 164 232 57 102 215 300 10 346 357 18 285 256 242 205 151 111 132 122 108 94 82 130 135 301 254 272 291 294 328 357 83 273 345 14 288 276 284 274 207 178 219 231 213 203 198 190 195 202 202 202 202
338 337 346 341 330 330 330 332 337 346 359 11 32 75 8 352 340 300 191 298 296 265 204 210 212 247 273 276 229 162 111 180 283 293 179 143 105 183 138 87 120 167 0 60 134 42 332 254 241 211 146 130 82 98 112 108 90 90 124 141 261 278 318 292 303 325 346 57 233 47 21 299 300 318 299 274 212 205 246 238 225 204 197 201 199 193 194 198
340 346 356 351 346 347 342 344 352 4 5 22 54 21 3 356 351 340 180 307 301 294 238 199 193 208 243 275 171 150 137 190 193 276 183 142 117 147 146 140 124 109 260 163 140 166 252 241 187 121 127 150 141 92 117 134 277 300 169 160 198 246 212 223 282 327 345 10 42 60 18 315 325 338 301 302 331 0 296 273 269 251 230 215 192 192 198 198
345 354 8 8 8 2 351 354 22 13 3 87 33 355 355 350 344 344 86 38 325 295 276 206 230 216 207 132 160 170 111 206 215 231 177 151 143 137 176 176 121 208 228 157 124 181 261 259 155 120 95 115 147 202 179 157 180 310 244 200 187 180 200 233 344 21 29 348 342 36 0 292 320 319 274 306 345 328 340 341 249 237 244 230 200 203 206 205
349 357 18 21 24 16 4 20 19 2 354 85 348 340 343 340 337 351 110 43 351 293 314 229 290 228 213 134 170 168 59 299 249 206 169 171 159 121 114 250 49 233 194 148 127 199 260 308 63 112 116 93 123 245 234 163 129 306 246 197 162 131 125 132 73 71 80 270 302 46 155 255 319 314 278 325 343 313 317 315 271 227 215 219 221 215 206 205
351 355 13 18 28 17 6 11 349 353 54 330 333 335 335 334 335 147 93 36 339 284 328 287 331 74 249 199 163 117 101 276 287 80 162 180 171 69 109 237 8 188 171 120 353 261 229 315 29 72 93 88 116 254 233 151 119 237 227 144 129 126 145 163 146 149 208 249 320 14 110 193 300 280 289 346 348 321 318 304 294 282 222 213 230 232 217 211
349 347 357 3 6 356 344 332 326 334 127 324 329 332 330 330 334 129 78 65 271 280 20 274 279 315 306 206 130 110 207 271 36 326 296 134 151 57 79 227 181 185 165 114 247 271 225 257 303 85 79 87 205 215 194 152 138 241 192 125 129 138 148 143 125 135 349 19 313 324 37 147 274 274 310 1 355 314 306 291 294 309 311 279 248 237 225 220
348 336 343 343 339 339 331 319 306 264 309 328 334 328 324 330 104 76 69 113 267 296 210 283 305 289 333 32 33 7 329 352 76 279 338 88 118 66 111 211 151 149 12 109 208 256 246 233 225 138 106 224 229 210 177 158 179 227 136 98 71 72 77 86 102 111 49 54 246 272 287 174 270 284 306 354 358 284 286 288 290 305 318 308 284 261 236 223
344 325 327 331 327 333 328 317 305 311 328 333 329 323 328 74 76 59 63 206 277 298 270 338 319 307 20 47 336 342 329 292 328 325 8 82 345 34 118 187 102 114 343 27 234 254 289 277 200 147 179 202 178 143 168 147 136 132 94 64 50 43 38 48 62 85 69 348 253 254 230 138 264 280 274 239 216 265 281 301 309 317 318 299 286 277 253 227
338 326 314 319 323 324 324 322 337 343 334 331 327 329 39 76 56 87 144 253 264 315 354 351 303 5 40 100 310 336 340 311 333 5 6 330 349 21 77 342 45 61 4 356 317 303 333 332 242 259 232 158 105 73 37 60 84 98 75 66 65 0 15 33 355 47 89 262 265 265 159 114 206 268 295 281 275 280 265 273 301 315 313 297 291 296 274 236
329 329 310 313 316 310 308 312 329 336 329 327 333 8 90 33 15 127 262 316 315 295 352 295 295 16 14 29 19 333 332 339 344 39 68 8 355 310 191 189 190 13 338 298 320 339 321 262 265 305 288 144 108 73 7 14 41 79 84 77 75 336 13 18 304 0 184 243 269 291 113 130 233 243 281 295 297 300 273 253 277 293 300 309 334 342 321 274
316 321 320 316 310 306 307 310 317 319 318 325 346 58 77 74 199 215 275 340 254 255 245 276 330 31 27 37 15 329 351 3 340 19 1 38 19 279 282 175 156 116 283 233 322 355 318 302 320 326 292 151 126 143 205 315 73 127 144 128 118 109 64 303 266 274 259 262 299 305 285 281 270 265 284 290 291 297 308 294 280 278 287 319 22 25 15 1
302 299 306 305 309 309 306 302 299 301 315 337 38 76 66 113 215 206 250 265 253 310 348 5 354 19 45 51 340 339 33 347 339 19 348 6 23 314 328 4 61 102 112 167 221 141 281 306 293 199 270 320 163 180 170 149 141 170 160 134 144 158 153 222 224 196 239 265 322 308 259 188 202 281 294 287 291 308 340 320 297 292 288 336 50 42 33 26
290 276 283 291 307 318 308 285 286 300 322 18 66 75 120 213 247 183 224 257 265 330 330 14 51 49 23 354 330 0 55 299 350 32 16 19 42 276 321 331 323 104 118 152 244 180 156 260 262 259 282 284 213 202 137 115 105 233 135 111 157 186 151 168 190 168 179 176 270 258 230 219 203 293 301 309 315 320 338 331 343 340 323 22 50 38 32 33
281 274 273 281 302 323 316 282 281 303 347 65 68 70 177 213 226 165 207 270 106 212 333 1 46 68 356 327 332 345 12 345 2 29 8 357 199 244 243 276 294 128 139 170 212 166 104 271 282 310 330 357 270 217 125 126 180 183 129 157 208 171 122 117 194 60 76 143 251 248 228 285 352 324 313 333 322 318 346 9 40 18 4 36 43 29 29 28
316 302 307 336 346 348 333 304 281 301 38 79 87 183 223 210 183 179 236 316 315 105 81 29 7 76 332 323 305 312 348 16 6 20 340 328 344 310 323 304 294 158 169 194 218 197 160 270 294 337 36 320 337 55 45 49 124 126 180 207 186 107 94 108 155 12 46 198 269 301 192 230 111 186 291 313 300 359 359 0 30 28 30 44 36 27 28 15
335 336 62 22 2 330 347 333 274 0 68 72 75 240 234 175 203 210 322 320 334 74 81 124 288 121 175 203 277 289 347 11 355 14 331 326 37 356 358 326 304 356 22 148 171 262 135 270 295 297 199 302 347 50 12 350 56 128 184 194 114 119 196 99 135 148 132 216 281 315 270 227 200 213 231 222 209 5 344 339 24 31 30 37 27 29 34 23
354 25 78 12 356 296 293 290 215 68 65 72 102 241 231 238 270 294 332 325 90 84 90 204 232 39 169 174 223 275 345 65 153 35 334 288 74 31 27 340 301 343 0 112 125 315 83 118 283 293 268 291 348 38 263 301 344 39 45 17 34 130 164 158 140 161 170 192 244 308 317 266 227 231 179 169 206 253 316 348 19 14 6 13 13 18 30 37
14 52 227 357 0 301 241 251 80 60 61 169 192 209 261 278 288 307 326 0 72 109 153 199 180 24 247 209 202 253 12 147 154 112 241 240 86 21 15 2 317 328 340 45 86 35 49 102 244 294 326 293 288 310 201 189 184 22 22 346 342 69 121 164 83 111 135 154 180 195 294 272 248 228 174 177 210 232 265 344 354 349 350 356 6 12 14 26
27 47 251 350 358 317 191 60 48 60 95 143 177 236 299 343 303 311 322 10 49 211 156 153 164 170 192 202 216 216 99 86 126 138 221 281 60 33 3 10 287 297 345 26 34 23 37 124 194 292 333 289 238 248 204 176 172 163 180 198 171 137 133 143 295 312 93 137 167 159 215 267 257 206 208 213 212 233 287 328 335 340 348 354 5 11 12 18
48 35 285 354 354 335 96 64 3 58 113 145 135 253 299 4 5 315 322 358 21 12 53 109 152 164 174 188 205 180 138 119 195 166 197 155 104 145 317 326 279 251 76 40 324 276 135 105 119 273 270 241 250 260 161 168 155 135 147 153 137 139 124 134 204 251 153 124 150 132 165 269 265 229 232 247 238 261 301 337 16 356 352 2 6 7 15 24
73 273 310 1 355 357 89 39 309 24 37 248 300 259 255 0 353 333 341 354 6 11 12 20 160 167 195 195 168 162 162 196 181 172 191 147 135 213 301 332 323 351 69 30 306 296 87 77 36 297 295 300 302 325 32 43 81 93 27 47 111 139 130 147 180 176 161 180 148 118 237 264 270 272 293 304 291 281 343 11 59 36 8 3 4 5 8 15
338 252 286 4 6 54 115 179 230 27 308 312 353 335 308 269 173 12 343 322 332 35 33 357 165 157 4 76 90 130 180 216 163 40 119 130 195 254 337 356 5 49 51 346 262 281 307 4 90 19 335 329 336 349 352 349 31 100 303 334 73 100 98 109 110 82 135 216 160 156 232 248 266 318 352 341 357 83 74 37 79 74 31 4 357 359 358 4
355 276 265 356 19 52 117 167 146 148 306 359 357 325 332 322 273 287 192 285 333 115 130 318 323 66 47 53 52 37 39 64 329 358 44 45 296 298 355 1 15 45 21 3 18 234 216 189 142 136 226 244 259 275 268 279 310 28 307 299 303 108 112 127 82 91 211 246 169 168 217 258 280 307 337 343 23 90 92 60 69 76 45 5 355 358 2 11
33 18 302 335 15 44 82 84 90 110 106 49 350 315 2 326 303 314 120 107 2 59 93 347 340 39 40 51 58 21 10 17 29 59 54 340 285 283 330 345 8 12 8 25 31 80 124 323 190 168 190 203 205 229 225 174 194 229 213 245 251 139 118 110 100 142 196 192 203 213 184 164 272 278 299 313 326 129 129 90 77 56 8 349 345 350 355 3
68 65 17 342 343 17 29 8 34 50 323 138 102 329 356 330 314 327 20 67 32 48 67 20 15 45 48 75 95 109 334 0 19 73 84 298 267 286 310 322 8 359 11 22 12 63 88 339 259 174 207 220 213 239 258 117 221 213 179 212 242 231 120 126 165 204 169 140 247 244 187 176 247 252 248 259 263 239 220 196 135 275 317 340 336 339 346 349
52 108 81 50 304 348 24 345 353 9 352 69 137 19 15 10 354 331 332 356 25 38 57 16 7 13 35 134 130 147 338 2 358 8 153 320 300 322 340 356 353 354 23 28 357 71 110 265 246 172 254 260 244 255 263 243 254 237 188 206 224 207 173 183 208 201 156 178 242 229 181 201 236 235 230 230 219 214 220 226 268 295 330 8 358 356 355 351
44 65 322 5 66 197 254 319 338 33 21 17 28 33 46 25 354 304 290 345 359 359 59 93 314 325 3 87 122 126 209 196 305 290 206 193 335 340 354 336 288 347 34 41 352 88 128 251 227 180 280 292 277 265 243 215 250 271 240 225 216 205 201 205 219 205 183 218 243 199 187 221 230 217 224 222 199 205 234 271 307 331 345 324 0 20 1 350
50 45 319 14 36 335 307 349 31 70 24 8 25 24 36 34 358 318 300 39 10 334 31 90 257 291 9 64 106 148 229 186 165 248 181 146 331 259 249 263 250 336 15 43 330 0 101 257 237 173 286 285 278 282 260 217 213 240 254 248 228 229 231 224 231 216 200 244 255 213 209 244 249 222 221 233 265 222 253 271 266 244 229 213 176 70 344 333
7 251 338 68 21 344 345 355 43 78 29 8 23 341 339 356 354 323 300 31 88 40 347 342 220 227 27 40 66 312 274 191 173 204 179 161 205 209 209 214 192 307 347 41 234 350 100 242 315 41 281 263 233 251 263 265 252 248 249 241 224 226 225 217 215 194 187 221 244 230 232 250 246 218 207 236 317 233 233 242 238 226 216 190 165 171 286 299
3 308 22 79 94 347 1 355 29 74 87 348 325 310 322 319 325 342 250 0 63 58 347 319 149 134 35 20 359 315 297 245 207 208 190 178 203 216 227 223 172 182 265 190 250 285 162 206 235 148 245 266 218 230 254 320 308 266 239 209 212 216 217 228 240 217 199 198 206 222 238 241 210 172 174 198 222 229 236 236 214 207 216 205 195 209 252 273